| time (UTC) | temp C | wind direction | speed KPH | gust KPH | rain 1hr cm | rain 24hr cm | rain mn cm | humidity % | barometer mb |
| 20260904005704 | 20 | 173 | 4.8 | 16.1 | 0.00 | 0.00 | 0.00 | 77 | 1010.9 |
| 20260904005204 | 20 | 228 | 6.4 | 11.3 | 0.00 | 0.00 | 0.00 | 77 | 1011.0 |
| 20260904004705 | 20 | 97 | 3.2 | 14.5 | 0.00 | 0.00 | 0.00 | 77 | 1011.1 |
| 20260904004205 | 20 | 189 | 3.2 | 14.5 | 0.00 | 0.00 | 0.00 | 77 | 1011.2 |
| 20260904003704 | 20 | 183 | 1.6 | 14.5 | 0.00 | 0.00 | 0.00 | 77 | 1011.3 |
| 20260904003204 | 20 | 142 | 3.2 | 14.5 | 0.00 | 0.00 | 0.00 | 77 | 1011.4 |
| 20260904002704 | 20 | 176 | 1.6 | 11.3 | 0.00 | 0.00 | 0.00 | 77 | 1011.5 |
| 20260904002204 | 20 | 193 | 3.2 | 19.3 | 0.00 | 0.00 | 0.00 | 77 | 1011.6 |
| 20260904001705 | 20 | 183 | 1.6 | 19.3 | 0.00 | 0.00 | 0.00 | 77 | 1011.7 |
| 20260904001204 | 20 | 202 | 3.2 | 16.1 | 0.00 | 0.00 | 0.00 | 77 | 1011.8 |
| 20260904000704 | 20 | 180 | 3.2 | 16.1 | 0.00 | 0.00 | 0.00 | 77 | 1012.0 |
| 20260904000204 | 20 | 221 | 1.6 | 16.1 | 0.00 | 0.00 | 0.00 | 77 | 1012.1 |
| 20260903235704 | 20 | 278 | 4.8 | 14.5 | 0.00 | 0.00 | 0.00 | 77 | 1012.2 |
| 20260903235204 | 20 | 193 | 4.8 | 14.5 | 0.00 | 0.00 | 0.00 | 77 | 1012.2 |
| 20260903234714 | 20 | 130 | 4.8 | 16.1 | 0.00 | 0.00 | 0.00 | 77 | 1012.2 |
| 20260903234204 | 20 | 102 | 3.2 | 16.1 | 0.00 | 0.00 | 0.00 | 77 | 1012.2 |
| 20260903233707 | 20 | 219 | 1.6 | 16.1 | 0.00 | 0.00 | 0.00 | 77 | 1012.1 |
| 20260903233204 | 20 | 237 | 3.2 | 6.4 | 0.00 | 0.00 | 0.00 | 77 | 1012.2 |
| 20260903231204 | 20 | 169 | 0.0 | 9.7 | 0.00 | 0.00 | 0.00 | 77 | 1012.4 |
| 20260903230704 | 20 | 227 | 1.6 | 9.7 | 0.00 | 0.00 | 0.00 | 77 | 1012.5 |
| 20260903230233 | 20 | 193 | 3.2 | 11.3 | 0.00 | 0.00 | 0.00 | 77 | 1012.5 |
| 20260903225203 | 20 | 186 | 3.2 | 16.1 | 0.00 | 0.00 | 0.00 | 77 | 1012.4 |
| 20260903224704 | 20 | 207 | 3.2 | 16.1 | 0.00 | 0.00 | 0.00 | 77 | 1012.4 |
| 20260903224204 | 20 | 206 | 4.8 | 16.1 | 0.00 | 0.00 | 0.00 | 77 | 1012.4 |
| 20260903223704 | 20 | 179 | 3.2 | 16.1 | 0.00 | 0.00 | 0.00 | 77 | 1012.6 |
| 20260903223206 | 20 | 182 | 3.2 | 16.1 | 0.00 | 0.00 | 0.00 | 77 | 1012.8 |
| 20260903222704 | 21 | 234 | 4.8 | 17.7 | 0.00 | 0.00 | 0.00 | 77 | 1012.8 |
| 20260903222204 | 21 | 258 | 4.8 | 19.3 | 0.00 | 0.00 | 0.00 | 77 | 1012.8 |
| 20260903221204 | 21 | 179 | 4.8 | 17.7 | 0.00 | 0.00 | 0.00 | 77 | 1012.9 |
| 20260903220704 | 21 | 226 | 6.4 | 17.7 | 0.00 | 0.00 | 0.00 | 77 | 1013.0 |
| 20260903220204 | 21 | 195 | 4.8 | 16.1 | 0.00 | 0.00 | 0.00 | 77 | 1013.0 |
| 20260903215704 | 21 | 175 | 3.2 | 16.1 | 0.00 | 0.00 | 0.00 | 77 | 1013.1 |
| 20260903215204 | 21 | 220 | 1.6 | 16.1 | 0.00 | 0.00 | 0.00 | 77 | 1013.1 |
| 20260903214704 | 21 | 247 | 4.8 | 16.1 | 0.00 | 0.00 | 0.00 | 77 | 1013.1 |
| 20260903213704 | 21 | 210 | 4.8 | 16.1 | 0.00 | 0.00 | 0.00 | 77 | 1013.2 |
| 20260903213203 | 21 | 268 | 6.4 | 11.3 | 0.00 | 0.00 | 0.00 | 77 | 1013.2 |
| 20260903212704 | 21 | 178 | 3.2 | 14.5 | 0.00 | 0.00 | 0.00 | 77 | 1013.2 |
| 20260903212205 | 21 | 180 | 3.2 | 17.7 | 0.00 | 0.00 | 0.00 | 77 | 1013.1 |
| 20260903211205 | 21 | 264 | 4.8 | 19.3 | 0.00 | 0.00 | 0.00 | 77 | 1013.4 |
| 20260903210704 | 21 | 257 | 3.2 | 19.3 | 0.00 | 0.00 | 0.00 | 77 | 1013.3 |
| 20260903210204 | 21 | 161 | 4.8 | 14.5 | 0.00 | 0.00 | 0.00 | 77 | 1013.4 |
| 20260903205704 | 21 | 186 | 4.8 | 14.5 | 0.00 | 0.00 | 0.00 | 77 | 1013.5 |
| 20260903205204 | 21 | 261 | 3.2 | 14.5 | 0.00 | 0.00 | 0.00 | 77 | 1013.5 |
| 20260903204704 | 21 | 212 | 3.2 | 14.5 | 0.00 | 0.00 | 0.00 | 77 | 1013.4 |
| 20260903204203 | 21 | 180 | 4.8 | 14.5 | 0.00 | 0.00 | 0.00 | 77 | 1013.4 |
| 20260903203704 | 21 | 203 | 1.6 | 9.7 | 0.00 | 0.00 | 0.00 | 77 | 1013.4 |
| 20260903203203 | 21 | 185 | 3.2 | 11.3 | 0.00 | 0.00 | 0.00 | 77 | 1013.5 |
| 20260903202704 | 21 | 125 | 3.2 | 11.3 | 0.00 | 0.00 | 0.00 | 77 | 1013.5 |
| 20260903202204 | 21 | 162 | 1.6 | 11.3 | 0.00 | 0.00 | 0.00 | 77 | 1013.5 |
| 20260903201214 | 21 | 235 | 1.6 | 11.3 | 0.00 | 0.00 | 0.00 | 77 | 1013.4 |
| 20260903200704 | 21 | 233 | 3.2 | 11.3 | 0.00 | 0.00 | 0.00 | 77 | 1013.5 |
| 20260903195704 | 21 | 262 | 3.2 | 14.5 | 0.00 | 0.00 | 0.00 | 76 | 1013.5 |
| 20260903195204 | 21 | 200 | 1.6 | 14.5 | 0.00 | 0.00 | 0.00 | 76 | 1013.6 |
| 20260903194704 | 21 | 118 | 3.2 | 14.5 | 0.00 | 0.00 | 0.00 | 76 | 1013.5 |
| 20260903194204 | 21 | 133 | 3.2 | 11.3 | 0.00 | 0.00 | 0.00 | 76 | 1013.6 |
| 20260903193704 | 21 | 231 | 3.2 | 11.3 | 0.00 | 0.00 | 0.00 | 76 | 1013.6 |
| 20260903193204 | 21 | 202 | 3.2 | 11.3 | 0.00 | 0.00 | 0.00 | 75 | 1013.6 |
| 20260903192705 | 22 | 90 | 3.2 | 17.7 | 0.00 | 0.00 | 0.00 | 75 | 1013.6 |
| 20260903192204 | 22 | 234 | 4.8 | 17.7 | 0.00 | 0.00 | 0.00 | 75 | 1013.6 |
| 20260903191704 | 22 | 199 | 3.2 | 11.3 | 0.00 | 0.00 | 0.00 | 75 | 1013.6 |
| 20260903190704 | 22 | 195 | 3.2 | 14.5 | 0.00 | 0.00 | 0.00 | 75 | 1013.6 |
| 20260903190209 | 22 | 199 | 3.2 | 14.5 | 0.00 | 0.00 | 0.00 | 74 | 1013.5 |
| 20260903185707 | 22 | 230 | 1.6 | 9.7 | 0.00 | 0.00 | 0.00 | 74 | 1013.4 |
| 20260903185204 | 22 | 157 | 3.2 | 8.0 | 0.00 | 0.00 | 0.00 | 74 | 1013.4 |
| 20260903184704 | 22 | 165 | 3.2 | 11.3 | 0.00 | 0.00 | 0.00 | 73 | 1013.4 |
| 20260903184204 | 23 | 193 | 3.2 | 16.1 | 0.00 | 0.00 | 0.00 | 73 | 1013.3 |
| 20260903183704 | 23 | 172 | 1.6 | 16.1 | 0.00 | 0.00 | 0.00 | 72 | 1013.3 |
| 20260903183204 | 23 | 137 | 3.2 | 16.1 | 0.00 | 0.00 | 0.00 | 72 | 1013.3 |
| 20260903181704 | 23 | 234 | 4.8 | 11.3 | 0.00 | 0.00 | 0.00 | 71 | 1013.2 |
| 20260903181204 | 23 | 183 | 3.2 | 11.3 | 0.00 | 0.00 | 0.00 | 71 | 1013.2 |
| 20260903180709 | 23 | 55 | 4.8 | 17.7 | 0.00 | 0.00 | 0.00 | 70 | 1013.2 |
| 20260903180204 | 23 | 254 | 3.2 | 17.7 | 0.00 | 0.00 | 0.00 | 70 | 1013.3 |
| 20260903175205 | 24 | 231 | 3.2 | 14.5 | 0.00 | 0.00 | 0.00 | 69 | 1013.3 |
| 20260903174204 | 24 | 209 | 3.2 | 17.7 | 0.00 | 0.00 | 0.00 | 69 | 1013.4 |
| 20260903173704 | 24 | 138 | 3.2 | 17.7 | 0.00 | 0.00 | 0.00 | 69 | 1013.4 |
| 20260903173204 | 24 | 210 | 4.8 | 14.5 | 0.00 | 0.00 | 0.00 | 69 | 1013.3 |
| 20260903172730 | 24 | 152 | 4.8 | 11.3 | 0.00 | 0.00 | 0.00 | 68 | 1013.2 |
| 20260903172204 | 24 | 188 | 3.2 | 17.7 | 0.00 | 0.00 | 0.00 | 69 | 1013.2 |
| 20260903171704 | 24 | 161 | 3.2 | 17.7 | 0.00 | 0.00 | 0.00 | 69 | 1013.3 |
| 20260903171240 | 24 | 248 | 3.2 | 14.5 | 0.00 | 0.00 | 0.00 | 68 | 1013.5 |
| 20260903170204 | 24 | 264 | 6.4 | 14.5 | 0.00 | 0.00 | 0.00 | 69 | 1013.4 |
| 20260903165704 | 24 | 179 | 3.2 | 14.5 | 0.00 | 0.00 | 0.00 | 69 | 1013.4 |
| 20260903165204 | 24 | 203 | 3.2 | 14.5 | 0.00 | 0.00 | 0.00 | 68 | 1013.3 |
| 20260903164704 | 24 | 240 | 3.2 | 20.9 | 0.00 | 0.00 | 0.00 | 67 | 1013.4 |
| 20260903164204 | 25 | 176 | 4.8 | 20.9 | 0.00 | 0.00 | 0.00 | 67 | 1013.5 |
| 20260903163203 | 25 | 148 | 4.8 | 16.1 | 0.00 | 0.00 | 0.00 | 67 | 1013.5 |
| 20260903162704 | 25 | 241 | 4.8 | 16.1 | 0.00 | 0.00 | 0.00 | 66 | 1013.5 |
| 20260903162204 | 25 | 224 | 3.2 | 16.1 | 0.00 | 0.00 | 0.00 | 66 | 1013.5 |
| 20260903161704 | 25 | 231 | 3.2 | 16.1 | 0.00 | 0.00 | 0.00 | 66 | 1013.5 |
| 20260903161204 | 25 | 237 | 1.6 | 16.1 | 0.00 | 0.00 | 0.00 | 68 | 1013.6 |
| 20260903160704 | 25 | 161 | 3.2 | 16.1 | 0.00 | 0.00 | 0.00 | 67 | 1013.5 |
| 20260903155704 | 25 | 114 | 1.6 | 14.5 | 0.00 | 0.00 | 0.00 | 67 | 1013.6 |
| 20260903155205 | 25 | 80 | 3.2 | 14.5 | 0.00 | 0.00 | 0.00 | 67 | 1013.7 |
| 20260903154204 | 25 | 188 | 6.4 | 9.7 | 0.00 | 0.00 | 0.00 | 66 | 1013.6 |
| 20260903153706 | 25 | 159 | 3.2 | 11.3 | 0.00 | 0.00 | 0.00 | 65 | 1013.8 |
| 20260903153204 | 25 | 173 | 3.2 | 11.3 | 0.00 | 0.00 | 0.00 | 65 | 1013.8 |
| 20260903152704 | 25 | 164 | 3.2 | 14.5 | 0.00 | 0.00 | 0.00 | 65 | 1013.8 |
| 20260903152204 | 25 | 149 | 3.2 | 14.5 | 0.00 | 0.00 | 0.00 | 64 | 1014.0 |
| 20260903151704 | 25 | 251 | 1.6 | 14.5 | 0.00 | 0.00 | 0.00 | 63 | 1014.0 |
| 20260903151204 | 25 | 168 | 3.2 | 22.5 | 0.00 | 0.00 | 0.00 | 63 | 1013.9 |
| 20260903150704 | 25 | 266 | 6.4 | 22.5 | 0.00 | 0.00 | 0.00 | 61 | 1013.9 |
| 20260903145704 | 26 | 234 | 4.8 | 11.3 | 0.00 | 0.00 | 0.00 | 60 | 1014.1 |
| 20260903145205 | 26 | 207 | 3.2 | 25.7 | 0.00 | 0.00 | 0.00 | 60 | 1014.0 |
| 20260903144704 | 26 | 154 | 3.2 | 25.7 | 0.00 | 0.00 | 0.00 | 59 | 1013.8 |
| 20260903143704 | 26 | 250 | 3.2 | 24.1 | 0.00 | 0.00 | 0.00 | 56 | 1014.0 |
| 20260903143206 | 26 | 254 | 6.4 | 25.7 | 0.00 | 0.00 | 0.00 | 57 | 1014.1 |
| 20260903142704 | 26 | 199 | 6.4 | 25.7 | 0.00 | 0.00 | 0.00 | 57 | 1014.1 |
| 20260903142204 | 26 | 178 | 4.8 | 25.7 | 0.00 | 0.00 | 0.00 | 56 | 1014.0 |
| 20260903141705 | 26 | 262 | 9.7 | 25.7 | 0.00 | 0.00 | 0.00 | 55 | 1014.0 |
| 20260903141205 | 26 | 175 | 8.0 | 20.9 | 0.00 | 0.00 | 0.00 | 56 | 1014.0 |
| 20260903140704 | 26 | 258 | 9.7 | 20.9 | 0.00 | 0.00 | 0.00 | 56 | 1014.1 |
| 20260903135204 | 26 | 219 | 4.8 | 30.6 | 0.00 | 0.00 | 0.00 | 56 | 1014.2 |
| 20260903134705 | 26 | 243 | 4.8 | 30.6 | 0.00 | 0.00 | 0.00 | 56 | 1014.2 |
| 20260903134204 | 26 | 220 | 9.7 | 25.7 | 0.00 | 0.00 | 0.00 | 58 | 1014.4 |
| 20260903133711 | 25 | 193 | 6.4 | 25.7 | 0.00 | 0.00 | 0.00 | 59 | 1014.4 |
| 20260903133204 | 25 | 247 | 6.4 | 25.7 | 0.00 | 0.00 | 0.00 | 60 | 1014.5 |
| 20260903132704 | 25 | 231 | 6.4 | 25.7 | 0.00 | 0.00 | 0.00 | 60 | 1014.6 |
| 20260903132204 | 25 | 240 | 6.4 | 20.9 | 0.00 | 0.00 | 0.00 | 61 | 1014.5 |
| 20260903131205 | 25 | 264 | 4.8 | 20.9 | 0.00 | 0.00 | 0.00 | 61 | 1014.4 |
| 20260903130704 | 25 | 235 | 6.4 | 22.5 | 0.00 | 0.00 | 0.00 | 60 | 1014.6 |
| 20260903130209 | 25 | 254 | 6.4 | 22.5 | 0.00 | 0.00 | 0.00 | 61 | 1014.7 |
| 20260903125704 | 25 | 216 | 4.8 | 17.7 | 0.00 | 0.00 | 0.00 | 62 | 1014.7 |
| 20260903125204 | 24 | 265 | 3.2 | 17.7 | 0.00 | 0.00 | 0.00 | 63 | 1014.8 |
| 20260903124705 | 24 | 293 | 6.4 | 14.5 | 0.00 | 0.00 | 0.00 | 63 | 1014.8 |
| 20260903124205 | 24 | 250 | 6.4 | 17.7 | 0.00 | 0.00 | 0.00 | 63 | 1014.8 |
| 20260903123703 | 24 | 233 | 6.4 | 17.7 | 0.00 | 0.00 | 0.00 | 63 | 1014.9 |
| 20260903123203 | 24 | 230 | 4.8 | 19.3 | 0.00 | 0.00 | 0.00 | 63 | 1014.9 |
| 20260903122704 | 23 | 237 | 6.4 | 20.9 | 0.00 | 0.00 | 0.00 | 64 | 1015.0 |
| 20260903122204 | 23 | 230 | 6.4 | 20.9 | 0.00 | 0.00 | 0.00 | 64 | 1014.9 |
| 20260903121704 | 23 | 230 | 6.4 | 24.1 | 0.00 | 0.00 | 0.00 | 65 | 1015.0 |
| 20260903121204 | 23 | 244 | 9.7 | 24.1 | 0.00 | 0.00 | 0.00 | 65 | 1015.0 |
| 20260903120704 | 23 | 254 | 9.7 | 24.1 | 0.00 | 0.00 | 0.00 | 65 | 1014.9 |
| 20260903120205 | 23 | 254 | 8.0 | 16.1 | 0.00 | 0.00 | 0.00 | 65 | 1014.8 |
| 20260903115204 | 23 | 251 | 4.8 | 19.3 | 0.00 | 0.00 | 0.00 | 67 | 1014.8 |
| 20260903114204 | 23 | 269 | 6.4 | 16.1 | 0.00 | 0.00 | 0.00 | 67 | 1015.0 |
| 20260903113704 | 23 | 200 | 3.2 | 16.1 | 0.00 | 0.00 | 0.00 | 68 | 1015.0 |
| 20260903113204 | 23 | 197 | 3.2 | 19.3 | 0.00 | 0.00 | 0.00 | 68 | 1015.1 |
| 20260903112704 | 23 | 252 | 3.2 | 19.3 | 0.00 | 0.00 | 0.00 | 68 | 1015.0 |
| 20260903111704 | 23 | 228 | 6.4 | 14.5 | 0.00 | 0.00 | 0.00 | 68 | 1015.0 |
| 20260903111204 | 23 | 180 | 6.4 | 19.3 | 0.00 | 0.00 | 0.00 | 68 | 1015.0 |
| 20260903110704 | 23 | 281 | 3.2 | 19.3 | 0.00 | 0.00 | 0.00 | 68 | 1015.0 |
| 20260903110204 | 23 | 220 | 4.8 | 19.3 | 0.00 | 0.00 | 0.00 | 69 | 1015.1 |
| 20260903105205 | 22 | 247 | 6.4 | 22.5 | 0.00 | 0.03 | 0.00 | 69 | 1015.3 |
| 20260903104704 | 22 | 190 | 4.8 | 27.4 | 0.00 | 0.03 | 0.00 | 69 | 1015.2 |
| 20260903104204 | 22 | 265 | 6.4 | 27.4 | 0.00 | 0.03 | 0.00 | 69 | 1015.2 |
| 20260903103204 | 22 | 248 | 14.5 | 22.5 | 0.00 | 0.03 | 0.00 | 68 | 1015.2 |
| 20260903102705 | 22 | 166 | 3.2 | 22.5 | 0.00 | 0.03 | 0.00 | 69 | 1015.3 |
| 20260903102204 | 23 | 195 | 3.2 | 14.5 | 0.00 | 0.03 | 0.00 | 69 | 1015.4 |
| 20260903101703 | 22 | 244 | 3.2 | 14.5 | 0.00 | 0.03 | 0.00 | 70 | 1015.4 |
| 20260903101204 | 22 | 157 | 3.2 | 17.7 | 0.00 | 0.03 | 0.00 | 72 | 1015.3 |
| 20260903100726 | 22 | 247 | 4.8 | 17.7 | 0.00 | 0.03 | 0.00 | 72 | 1015.4 |
| 20260903100204 | 21 | 226 | 4.8 | 20.9 | 0.00 | 0.03 | 0.00 | 73 | 1015.4 |
| 20260903095704 | 21 | 168 | 4.8 | 20.9 | 0.00 | 0.03 | 0.00 | 73 | 1015.3 |
| 20260903095204 | 21 | 223 | 3.2 | 24.1 | 0.00 | 0.03 | 0.00 | 74 | 1015.6 |
| 20260903094704 | 21 | 250 | 6.4 | 24.1 | 0.00 | 0.03 | 0.00 | 73 | 1015.5 |
| 20260903094204 | 21 | 250 | 9.7 | 25.7 | 0.00 | 0.03 | 0.00 | 73 | 1015.4 |
| 20260903093204 | 21 | 234 | 8.0 | 25.7 | 0.00 | 0.03 | 0.00 | 74 | 1015.6 |
| 20260903092704 | 21 | 240 | 6.4 | 20.9 | 0.00 | 0.03 | 0.00 | 74 | 1015.6 |
| 20260903092204 | 21 | 237 | 8.0 | 20.9 | 0.00 | 0.03 | 0.00 | 75 | 1015.5 |
| 20260903091705 | 21 | 302 | 9.7 | 20.9 | 0.00 | 0.03 | 0.00 | 75 | 1015.6 |
| 20260903091204 | 21 | 223 | 6.4 | 22.5 | 0.00 | 0.03 | 0.00 | 75 | 1015.6 |
| 20260903090231 | 21 | 272 | 8.0 | 20.9 | 0.00 | 0.03 | 0.00 | 75 | 1015.4 |
| 20260903085205 | 21 | 244 | 4.8 | 24.1 | 0.00 | 0.03 | 0.00 | 76 | 1015.4 |
| 20260903084704 | 21 | 199 | 4.8 | 24.1 | 0.00 | 0.03 | 0.00 | 76 | 1015.3 |
| 20260903083704 | 21 | 245 | 11.3 | 17.7 | 0.00 | 0.03 | 0.00 | 77 | 1015.2 |
| 20260903083204 | 21 | 255 | 3.2 | 17.7 | 0.00 | 0.03 | 0.00 | 77 | 1015.1 |
| 20260903082704 | 20 | 254 | 6.4 | 14.5 | 0.00 | 0.03 | 0.00 | 77 | 1014.8 |
| 20260903082204 | 20 | 224 | 4.8 | 14.5 | 0.00 | 0.03 | 0.00 | 77 | 1014.8 |
| 20260903081704 | 20 | 259 | 4.8 | 14.5 | 0.00 | 0.03 | 0.00 | 77 | 1014.6 |
| 20260903081205 | 20 | 197 | 3.2 | 14.5 | 0.00 | 0.03 | 0.00 | 77 | 1014.6 |
| 20260903080205 | 20 | 258 | 4.8 | 11.3 | 0.00 | 0.03 | 0.00 | 77 | 1014.4 |
| 20260903075704 | 20 | 266 | 4.8 | 19.3 | 0.00 | 0.03 | 0.00 | 77 | 1014.4 |
| 20260903075205 | 20 | 131 | 4.8 | 19.3 | 0.00 | 0.03 | 0.00 | 77 | 1014.2 |
| 20260903074705 | 20 | 240 | 1.6 | 19.3 | 0.00 | 0.03 | 0.00 | 77 | 1014.2 |
| 20260903074204 | 20 | 190 | 3.2 | 14.5 | 0.00 | 0.03 | 0.00 | 77 | 1014.0 |
| 20260903073731 | 20 | 241 | 4.8 | 14.5 | 0.00 | 0.03 | 0.00 | 77 | 1014.1 |
| 20260903073204 | 20 | 272 | 3.2 | 14.5 | 0.00 | 0.03 | 0.00 | 77 | 1013.9 |
| 20260903072204 | 20 | 226 | 3.2 | 17.7 | 0.00 | 0.03 | 0.00 | 77 | 1013.8 |
| 20260903071204 | 20 | 178 | 3.2 | 17.7 | 0.00 | 0.03 | 0.00 | 77 | 1014.0 |
| 20260903070704 | 20 | 200 | 3.2 | 14.5 | 0.00 | 0.03 | 0.00 | 77 | 1014.1 |
| 20260903070209 | 19 | 224 | 1.6 | 14.5 | 0.00 | 0.03 | 0.00 | 77 | 1013.9 |
| 20260903065705 | 19 | 217 | 3.2 | 14.5 | 0.00 | 0.03 | 0.00 | 77 | 1014.0 |
| 20260903065205 | 19 | 178 | 3.2 | 16.1 | 0.00 | 0.03 | 0.00 | 77 | 1014.0 |
| 20260903064705 | 19 | 223 | 4.8 | 17.7 | 0.00 | 0.03 | 0.00 | 77 | 1014.2 |
| 20260903064204 | 19 | 241 | 6.4 | 17.7 | 0.00 | 0.03 | 0.00 | 77 | 1014.2 |
| 20260903063704 | 19 | 250 | 6.4 | 17.7 | 0.00 | 0.03 | 0.00 | 77 | 1014.3 |
| 20260903063204 | 19 | 240 | 4.8 | 14.5 | 0.00 | 0.03 | 0.00 | 77 | 1014.1 |
| 20260903062704 | 19 | 176 | 4.8 | 14.5 | 0.00 | 0.03 | 0.00 | 77 | 1014.0 |
| 20260903062204 | 19 | 248 | 3.2 | 14.5 | 0.00 | 0.03 | 0.00 | 77 | 1014.1 |
| 20260903061705 | 19 | 120 | 1.6 | 16.1 | 0.00 | 0.03 | 0.00 | 77 | 1014.0 |
| 20260903061204 | 19 | 212 | 1.6 | 16.1 | 0.00 | 0.03 | 0.00 | 76 | 1014.1 |
| 20260903060704 | 19 | 166 | 3.2 | 16.1 | 0.00 | 0.03 | 0.00 | 76 | 1014.0 |
| 20260903060204 | 19 | 110 | 3.2 | 16.1 | 0.00 | 0.03 | 0.00 | 76 | 1014.0 |
| 20260903055704 | 19 | 228 | 4.8 | 16.1 | 0.00 | 0.03 | 0.00 | 76 | 1014.0 |
| 20260903055205 | 19 | 175 | 3.2 | 9.7 | 0.00 | 0.03 | 0.00 | 76 | 1013.9 |
| 20260903054703 | 19 | 193 | 3.2 | 9.7 | 0.00 | 0.03 | 0.00 | 76 | 1013.9 |
| 20260903054204 | 19 | 204 | 1.6 | 9.7 | 0.00 | 0.03 | 0.00 | 76 | 1013.8 |
| 20260903053704 | 19 | 238 | 1.6 | 11.3 | 0.00 | 0.03 | 0.00 | 76 | 1013.7 |
| 20260903053204 | 19 | 207 | 3.2 | 11.3 | 0.00 | 0.03 | 0.00 | 76 | 1013.8 |
| 20260903052204 | 19 | 169 | 4.8 | 11.3 | 0.00 | 0.03 | 0.00 | 76 | 1013.6 |
| 20260903051704 | 19 | 203 | 3.2 | 11.3 | 0.00 | 0.03 | 0.00 | 76 | 1013.7 |
| 20260903051204 | 19 | 196 | 3.2 | 11.3 | 0.00 | 0.03 | 0.00 | 76 | 1013.6 |
| 20260903050704 | 19 | 196 | 6.4 | 11.3 | 0.00 | 0.03 | 0.00 | 76 | 1013.8 |
| 20260903050203 | 19 | 197 | 3.2 | 16.1 | 0.00 | 0.03 | 0.00 | 76 | 1013.8 |
| 20260903045714 | 19 | 102 | 3.2 | 16.1 | 0.00 | 0.03 | 0.00 | 76 | 1013.6 |
| 20260903045204 | 18 | 221 | 4.8 | 16.1 | 0.00 | 0.03 | 0.00 | 76 | 1013.7 |
| 20260903044704 | 18 | 178 | 3.2 | 11.3 | 0.00 | 0.03 | 0.00 | 76 | 1013.5 |
| 20260903044204 | 18 | 244 | 3.2 | 11.3 | 0.00 | 0.03 | 0.00 | 75 | 1013.4 |
| 20260903043704 | 18 | 240 | 1.6 | 11.3 | 0.00 | 0.03 | 0.00 | 75 | 1013.6 |
| 20260903043204 | 18 | 190 | 1.6 | 9.7 | 0.00 | 0.03 | 0.00 | 75 | 1013.5 |
| 20260903042704 | 18 | 199 | 3.2 | 9.7 | 0.00 | 0.03 | 0.00 | 75 | 1013.6 |
| 20260903042204 | 18 | 217 | 1.6 | 9.7 | 0.00 | 0.03 | 0.00 | 75 | 1013.6 |
| 20260903041704 | 18 | 190 | 3.2 | 9.7 | 0.00 | 0.03 | 0.00 | 75 | 1013.6 |
| 20260903040729 | 19 | 237 | 3.2 | 11.3 | 0.00 | 0.03 | 0.00 | 75 | 1013.7 |
| 20260903040204 | 19 | 204 | 1.6 | 8.0 | 0.00 | 0.03 | 0.00 | 75 | 1013.8 |
| 20260903035704 | 19 | 231 | 3.2 | 9.7 | 0.00 | 0.03 | 0.00 | 75 | 1013.7 |
| 20260903035204 | 19 | 196 | 3.2 | 14.5 | 0.00 | 0.03 | 0.00 | 75 | 1013.7 |
| 20260903034704 | 19 | 247 | 3.2 | 14.5 | 0.00 | 0.03 | 0.00 | 75 | 1013.6 |
| 20260903034205 | 19 | 180 | 3.2 | 14.5 | 0.00 | 0.03 | 0.00 | 75 | 1013.4 |
| 20260903033704 | 19 | 254 | 4.8 | 11.3 | 0.00 | 0.03 | 0.00 | 75 | 1013.5 |
| 20260903033204 | 18 | 157 | 3.2 | 16.1 | 0.00 | 0.03 | 0.00 | 75 | 1013.5 |
| 20260903032205 | 18 | 179 | 3.2 | 16.1 | 0.00 | 0.03 | 0.00 | 75 | 1013.7 |
| 20260903031204 | 18 | 199 | 3.2 | 11.3 | 0.00 | 0.03 | 0.00 | 75 | 1013.6 |
| 20260903030704 | 18 | 197 | 4.8 | 9.7 | 0.00 | 0.03 | 0.00 | 75 | 1013.6 |
| 20260903023704 | 18 | 220 | 3.2 | 11.3 | 0.00 | 0.03 | 0.00 | 76 | 1013.6 |
| 20260903023214 | 18 | 189 | 1.6 | 11.3 | 0.00 | 0.03 | 0.00 | 76 | 1013.7 |
| 20260903022204 | 18 | 178 | 3.2 | 9.7 | 0.00 | 0.03 | 0.00 | 75 | 1013.7 |
| 20260903021704 | 18 | 164 | 1.6 | 8.0 | 0.00 | 0.03 | 0.00 | 75 | 1013.7 |
| 20260903015705 | 18 | 162 | 0.0 | 14.5 | 0.00 | 0.03 | 0.00 | 75 | 1013.7 |
| 20260903015204 | 18 | 180 | 3.2 | 14.5 | 0.00 | 0.03 | 0.00 | 75 | 1013.7 |
| 20260903014704 | 18 | 196 | 0.0 | 14.5 | 0.00 | 0.03 | 0.00 | 75 | 1013.8 |
| 20260903014204 | 18 | 189 | 3.2 | 11.3 | 0.00 | 0.03 | 0.00 | 75 | 1013.8 |
| 20260903013704 | 18 | 164 | 3.2 | 11.3 | 0.00 | 0.03 | 0.00 | 75 | 1013.7 |
| 20260903013204 | 18 | 197 | 3.2 | 11.3 | 0.00 | 0.03 | 0.00 | 75 | 1013.9 |
| 20260903012205 | 18 | 185 | 3.2 | 8.0 | 0.00 | 0.03 | 0.00 | 75 | 1013.8 |
| 20260903011705 | 18 | 196 | 3.2 | 16.1 | 0.00 | 0.03 | 0.00 | 75 | 1013.8 |
| 20260903011205 | 18 | 183 | 1.6 | 16.1 | 0.00 | 0.03 | 0.00 | 75 | 1013.8 |
| 20260903010703 | 18 | 203 | 3.2 | 8.0 | 0.00 | 0.03 | 0.00 | 75 | 1013.7 |